When you browse on this site, cookies collect data to enhance your experience and personalize the content and advertising you see.
Visit our Privacy Policy to learn more. By continuing to use the site, you agree to this use of cookies and data.
  • In Hungary
  • List of Countries
  • For 7 days
  • Water Temperature
  • Satellite Maps
  • Weather Map
  • News
  • Weather Widgets
  • user-avatar
    Login

    Hourly Weather Balho

    Today, 21 April, Sunday

    Time Temperature Precipitation Wind Pressure Humidity
    00:00 +34°C° 0 mm 2 mps 735 mmHg 61%
    01:00 +32°C° 0 mm 2 mps 734 mmHg 63%
    02:00 +32°C° 0 mm 2 mps 734 mmHg 65%
    03:00 +32°C° 0 mm 2 mps 734 mmHg 66%
    04:00 +31°C° 0 mm 2 mps 734 mmHg 66%
    05:00 +31°C° 0 mm 2 mps 734 mmHg 67%
    06:00 +31°C° 0 mm 2 mps 735 mmHg 68%
    07:00 +31°C° 0 mm 2 mps 735 mmHg 65%
    08:00 +32°C° 0 mm 1 mps 735 mmHg 61%
    09:00 +33°C° 0 mm 1 mps 735 mmHg 58%
    10:00 +34°C° 0 mm 1 mps 735 mmHg 52%
    11:00 +35°C° 0 mm 1 mps 735 mmHg 46%
    12:00 +37°C° 0 mm 1 mps 734 mmHg 41%
    13:00 +39°C° 0 mm 1 mps 734 mmHg 37%
    14:00 +40°C° 0 mm 1 mps 733 mmHg 33%
    15:00 +41°C° 0 mm 1 mps 732 mmHg 29%
    16:00 +41°C° 0 mm 2 mps 732 mmHg 29%
    17:00 +41°C° 0 mm 2 mps 732 mmHg 29%
    18:00 +42°C° 0 mm 3 mps 732 mmHg 28%
    19:00 +40°C° 0 mm 4 mps 732 mmHg 36%
    20:00 +37°C° 0 mm 4 mps 732 mmHg 44%
    21:00 +36°C° 0 mm 5 mps 733 mmHg 52%
    22:00 +35°C° 0 mm 4 mps 733 mmHg 55%
    23:00 +34°C° 0 mm 4 mps 733 mmHg 57%

    Tomorrow, 22 April, Monday

    Time Temperature Precipitation Wind Pressure Humidity
    00:00 +33°C° 0 mm 4 mps 733 mmHg 60%
    01:00 +33°C° 0 mm 3 mps 733 mmHg 61%
    02:00 +31°C° 0 mm 3 mps 733 mmHg 63%
    03:00 +31°C° 0 mm 2 mps 733 mmHg 65%
    04:00 +30°C° 0 mm 2 mps 733 mmHg 64%
    05:00 +30°C° 0 mm 2 mps 734 mmHg 64%
    06:00 +30°C° 0 mm 2 mps 734 mmHg 64%
    07:00 +31°C° 0 mm 2 mps 735 mmHg 60%
    08:00 +31°C° 0 mm 2 mps 735 mmHg 56%
    09:00 +32°C° 0 mm 2 mps 736 mmHg 53%
    10:00 +34°C° 0 mm 2 mps 736 mmHg 48%
    11:00 +36°C° 0 mm 2 mps 735 mmHg 44%
    12:00 +37°C° 0 mm 2 mps 735 mmHg 39%
    13:00 +38°C° 0 mm 2 mps 734 mmHg 36%
    14:00 +39°C° 0 mm 2 mps 734 mmHg 33%
    15:00 +40°C° 0 mm 2 mps 733 mmHg 31%
    16:00 +39°C° 0 mm 3 mps 733 mmHg 31%
    17:00 +39°C° 0 mm 3 mps 733 mmHg 32%
    18:00 +40°C° 0 mm 4 mps 732 mmHg 33%
    19:00 +38°C° 0 mm 4 mps 733 mmHg 39%
    20:00 +36°C° 0 mm 4 mps 734 mmHg 45%
    21:00 +35°C° 0 mm 4 mps 734 mmHg 51%
    22:00 +34°C° 0 mm 3 mps 734 mmHg 53%
    23:00 +34°C° 0 mm 3 mps 734 mmHg 55%

    Day after tomorrow, 23 April, Tuesday

    Time Temperature Precipitation Wind Pressure Humidity
    00:00 +32°C° 0 mm 2 mps 734 mmHg 58%
    01:00 +32°C° 0 mm 2 mps 734 mmHg 58%
    02:00 +31°C° 0 mm 2 mps 734 mmHg 59%
    03:00 +31°C° 0 mm 2 mps 733 mmHg 60%
    04:00 +31°C° 0 mm 2 mps 733 mmHg 61%
    05:00 +30°C° 0 mm 2 mps 734 mmHg 61%
    06:00 +30°C° 0 mm 2 mps 734 mmHg 61%
    07:00 +31°C° 0 mm 2 mps 735 mmHg 58%
    08:00 +31°C° 0 mm 2 mps 736 mmHg 56%
    09:00 +32°C° 0 mm 2 mps 736 mmHg 53%
    10:00 +35°C° 0 mm 2 mps 736 mmHg 48%
    11:00 +36°C° 0 mm 2 mps 736 mmHg 44%
    12:00 +37°C° 0 mm 2 mps 736 mmHg 39%
    13:00 +38°C° 0 mm 2 mps 735 mmHg 36%
    14:00 +39°C° 0 mm 2 mps 734 mmHg 32%
    15:00 +40°C° 0 mm 2 mps 733 mmHg 29%
    16:00 +40°C° 0 mm 3 mps 733 mmHg 30%
    17:00 +41°C° 0 mm 4 mps 733 mmHg 30%
    18:00 +41°C° 0 mm 4 mps 734 mmHg 31%
    19:00 +40°C° 0 mm 4 mps 734 mmHg 36%
    20:00 +38°C° 0 mm 4 mps 735 mmHg 41%
    21:00 +36°C° 0 mm 4 mps 735 mmHg 46%
    22:00 +36°C° 0 mm 3 mps 735 mmHg 47%
    23:00 +35°C° 0 mm 3 mps 735 mmHg 49%

    24 April, Wednesday

    Time Temperature Precipitation Wind Pressure Humidity
    00:00 +35°C° 0 mm 2 mps 735 mmHg 50%
    01:00 +35°C° 0 mm 2 mps 735 mmHg 51%
    02:00 +34°C° 0 mm 2 mps 734 mmHg 52%
    03:00 +34°C° 0 mm 2 mps 734 mmHg 53%
    04:00 +34°C° 0 mm 2 mps 734 mmHg 54%
    05:00 +32°C° 0 mm 2 mps 735 mmHg 56%
    06:00 +32°C° 0 mm 2 mps 735 mmHg 57%
    07:00 +32°C° 0 mm 2 mps 736 mmHg 55%
    08:00 +34°C° 0 mm 2 mps 737 mmHg 52%
    09:00 +35°C° 0 mm 2 mps 737 mmHg 49%
    10:00 +36°C° 0 mm 2 mps 737 mmHg 44%
    11:00 +37°C° 0 mm 2 mps 737 mmHg 40%
    12:00 +39°C° 0 mm 2 mps 737 mmHg 35%
    13:00 +39°C° 0.1 mm 2 mps 736 mmHg 34%
    14:00 +40°C° 0.1 mm 2 mps 735 mmHg 33%
    15:00 +40°C° 0.1 mm 3 mps 734 mmHg 32%
    16:00 +40°C° 0.1 mm 3 mps 734 mmHg 32%
    17:00 +41°C° 0.1 mm 4 mps 734 mmHg 33%
    18:00 +41°C° 0.1 mm 5 mps 734 mmHg 33%
    19:00 +40°C° 0 mm 5 mps 735 mmHg 34%
    20:00 +39°C° 0 mm 6 mps 736 mmHg 35%
    21:00 +38°C° 0 mm 6 mps 736 mmHg 36%
    22:00 +36°C° 0 mm 6 mps 736 mmHg 38%
    23:00 +35°C° 0 mm 5 mps 736 mmHg 40%

    25 April, Thursday

    Time Temperature Precipitation Wind Pressure Humidity
    00:00 +35°C° 0 mm 5 mps 736 mmHg 42%
    01:00 +34°C° 0 mm 5 mps 735 mmHg 46%
    02:00 +33°C° 0 mm 4 mps 735 mmHg 51%
    03:00 +33°C° 0 mm 4 mps 735 mmHg 55%
    04:00 +32°C° 0 mm 4 mps 735 mmHg 59%
    05:00 +32°C° 0 mm 4 mps 736 mmHg 62%
    06:00 +30°C° 0 mm 4 mps 736 mmHg 65%
    07:00 +33°C° 0 mm 5 mps 737 mmHg 57%
    08:00 +34°C° 0 mm 6 mps 738 mmHg 49%
    09:00 +36°C° 0 mm 6 mps 738 mmHg 40%
    10:00 +38°C° 0 mm 6 mps 738 mmHg 37%
    11:00 +39°C° 0 mm 6 mps 737 mmHg 33%
    12:00 +40°C° 0 mm 7 mps 737 mmHg 29%
    13:00 +40°C° 0 mm 6 mps 736 mmHg 29%
    14:00 +41°C° 0 mm 6 mps 735 mmHg 29%
    15:00 +41°C° 0 mm 6 mps 734 mmHg 28%
    16:00 +40°C° 0 mm 7 mps 734 mmHg 31%
    17:00 +39°C° 0 mm 7 mps 735 mmHg 33%
    18:00 +38°C° 0 mm 7 mps 735 mmHg 36%
    19:00 +36°C° 0 mm 7 mps 735 mmHg 39%
    20:00 +35°C° 0 mm 7 mps 736 mmHg 42%
    21:00 +34°C° 0 mm 7 mps 736 mmHg 46%
    22:00 +33°C° 0 mm 6 mps 736 mmHg 47%
    23:00 +33°C° 0 mm 6 mps 736 mmHg 48%

    26 April, Friday

    Time Temperature Precipitation Wind Pressure Humidity
    00:00 +32°C° 0 mm 5 mps 736 mmHg 49%
    01:00 +32°C° 0 mm 5 mps 735 mmHg 50%
    02:00 +30°C° 0 mm 4 mps 735 mmHg 51%
    03:00 +30°C° 0 mm 4 mps 735 mmHg 52%
    04:00 +30°C° 0 mm 3 mps 735 mmHg 54%
    05:00 +29°C° 0 mm 3 mps 735 mmHg 56%
    06:00 +29°C° 0 mm 3 mps 736 mmHg 58%
    07:00 +30°C° 0 mm 3 mps 736 mmHg 51%
    08:00 +33°C° 0 mm 4 mps 737 mmHg 45%
    09:00 +34°C° 0 mm 5 mps 737 mmHg 38%
    10:00 +36°C° 0 mm 5 mps 737 mmHg 32%
    11:00 +38°C° 0 mm 6 mps 737 mmHg 27%
    12:00 +40°C° 0 mm 6 mps 736 mmHg 21%
    13:00 +40°C° 0 mm 6 mps 736 mmHg 20%
    14:00 +41°C° 0 mm 7 mps 735 mmHg 18%
    15:00 +41°C° 0 mm 7 mps 734 mmHg 17%
    16:00 +40°C° 0 mm 7 mps 734 mmHg 19%
    17:00 +39°C° 0 mm 7 mps 734 mmHg 21%
    18:00 +38°C° 0 mm 7 mps 734 mmHg 23%
    19:00 +36°C° 0 mm 6 mps 735 mmHg 28%
    20:00 +35°C° 0 mm 6 mps 735 mmHg 33%
    21:00 +34°C° 0 mm 5 mps 735 mmHg 38%
    22:00 +33°C° 0 mm 5 mps 735 mmHg 41%
    23:00 +32°C° 0 mm 5 mps 735 mmHg 44%
    Show more